{"data":{"norad_id":44312,"epoch":"2026-05-25T04:53:00.930336Z","epoch_age_seconds":54119,"freshness":"FRESH","line1":"1 44312U 19032C   26145.20348299  .00011133  00000+0  36214-3 0  9991","line2":"2 44312  44.9737 123.3771 0004557 184.5302 175.5542 15.32045773384313","mean_motion":15.32045773,"eccentricity":0.0004557,"inclination_deg":44.9737,"raan_deg":123.3771,"arg_perigee_deg":184.5302,"mean_anomaly_deg":175.5542,"bstar":0.00036214,"rev_number":38431,"period_min":93.991969781702,"perigee_km":466.58889413719,"apogee_km":472.8300213988,"semimajor_km":6847.846457768,"source":"CELESTRAK","updated_at":"2026-05-25T13:37:55.965797Z"}}